Location: Rayville (historical)
(39.9992°N, 99.6815°W)
Time: 09:19:04
(UTC+00:00)

CZ-4C R/B - Pass Details

Date: 18 February 2020
Orbit: 641 x 1361 km, 63.4° (Epoch: 09 April)

Event Time Altitude Azimuth Distance (km) Brightness Sun altitude
Exits shadow 11:02:54 18° 348° (NNW) 2,013 4.1 -28.5°
Drops below altitude 10° 11:05:32 10° 12° (NNE) 2,623 5.0 -28.0°
Sets 11:09:05 0° 29° (NNE) 3,722 6.0 -27.3°
